DW2819 Weather Reports


Display with metric or nautical units.
time (UTC)temp
F
wind
direction
speed
MPH
gust
MPH
rain 1hr
in
rain 24hr
in
rain mn
in
humidity
%
barometer
mb
20260505172229 46 279 2.0 5.0 0.00 0.00 0.00 45 1005.9
20260505171733 46 230 3.0 5.0 0.00 0.00 0.00 47 1005.8
20260505170705 47 309 0.0 4.0 0.00 0.00 0.00 44 1005.8
20260505170205 47 296 1.0 4.0 0.00 0.00 0.00 45 1005.7
20260505165706 47 279 1.0 4.0 0.00 0.00 0.00 45 1005.7
20260505165206 47 307 2.0 4.0 0.00 0.00 0.00 44 1005.7
20260505164703 47 135 1.0 6.0 0.00 0.00 0.00 43 1005.8
20260505164202 48 28 2.0 9.0 0.00 0.00 0.00 43 1005.8
20260505163659 48 1 2.0 9.0 0.00 0.00 0.00 42 1005.7
20260505162703 48 209 1.0 4.0 0.00 0.00 0.00 43 1005.7
20260505162202 48 85 2.0 4.0 0.00 0.00 0.00 44 1005.6
20260505161659 49 302 2.0 5.0 0.00 0.00 0.00 44 1005.6
20260505161204 49 333 3.0 5.0 0.00 0.00 0.00 43 1005.6
20260505160201 49 224 2.0 5.0 0.00 0.00 0.00 44 1005.6
20260505153201 50 243 2.0 6.0 0.00 0.00 0.00 41 1005.3
20260505152703 51 331 2.0 6.0 0.00 0.00 0.00 41 1005.3
20260505152202 51 247 2.0 5.0 0.00 0.00 0.00 39 1005.2
20260505151704 51 135 3.0 5.0 0.00 0.00 0.00 40 1005.2
20260505151206 51 128 2.0 4.0 0.00 0.00 0.00 40 1005.1
20260505150702 51 357 0.0 5.0 0.00 0.00 0.00 42 1005.1
20260505150209 51 313 2.0 5.0 0.00 0.00 0.00 40 1005.2
20260505140206 51 348 4.0 7.0 0.00 0.00 0.00 41 1004.8
20260505124209 53 240 2.0 6.0 0.00 0.00 0.00 40 1004.4
20260505123701 53 8 2.0 6.0 0.00 0.00 0.00 41 1004.4
20260505123204 53 268 2.0 5.0 0.00 0.00 0.00 42 1004.3
20260505122703 53 231 3.0 7.0 0.00 0.00 0.00 46 1004.2
20260505122206 52 316 1.0 7.0 0.00 0.00 0.00 48 1004.3
20260505121703 52 341 2.0 6.0 0.00 0.00 0.00 51 1004.4
20260505121206 51 142 2.0 6.0 0.00 0.00 0.00 50 1004.3
20260505120705 51 0 1.0 7.0 0.00 0.00 0.00 50 1004.3
20260505115704 51 305 2.0 9.0 0.00 0.00 0.00 50 1004.3
20260505115206 52 334 3.0 6.0 0.00 0.00 0.00 50 1004.1
20260505114701 52 307 2.0 7.0 0.00 0.00 0.00 51 1004.1
20260505114206 51 42 1.0 7.0 0.00 0.01 0.00 54 1004.1
20260505113703 50 0 4.0 11.0 0.00 0.01 0.00 52 1004.0
20260505112700 53 32 4.0 7.0 0.00 0.01 0.00 49 1004.0
20260505112202 53 321 3.0 5.0 0.00 0.01 0.00 46 1003.7
20260505110206 51 264 2.0 9.0 0.00 0.02 0.00 51 1003.7
20260505102203 52 0 2.0 7.0 0.00 0.06 0.00 50 1003.1
20260505101701 52 314 3.0 6.0 0.00 0.06 0.00 53 1003.1
20260505101205 52 323 3.0 7.0 0.00 0.06 0.00 53 1003.0
20260505100700 54 312 2.0 7.0 0.00 0.06 0.00 48 1002.9
20260505100205 54 230 2.0 10.0 0.00 0.07 0.00 48 1002.8
20260505095700 53 314 3.0 10.0 0.00 0.07 0.00 49 1002.9
20260505095205 54 292 4.0 6.0 0.00 0.07 0.00 51 1002.6
20260505094703 53 149 2.0 6.0 0.00 0.08 0.00 53 1002.6
20260505094203 54 302 2.0 6.0 0.00 0.08 0.00 51 1002.4
20260505093704 54 238 2.0 12.0 0.00 0.09 0.00 53 1002.4
20260505093206 52 357 3.0 12.0 0.00 0.09 0.00 52 1002.4
20260505092204 55 300 5.0 9.0 0.00 0.09 0.00 49 1002.1
20260505091704 54 307 3.0 9.0 0.00 0.09 0.00 50 1002.0
20260505091205 54 283 5.0 7.0 0.00 0.10 0.00 51 1002.1
20260505090703 55 320 3.0 7.0 0.00 0.10 0.00 51 1002.0
20260505090205 55 336 3.0 10.0 0.00 0.10 0.00 52 1001.9
20260505085703 54 313 2.0 10.0 0.00 0.10 0.00 55 1001.8
20260505085205 53 348 4.0 7.0 0.00 0.10 0.00 58 1001.6
20260505084700 52 331 2.0 13.0 0.00 0.10 0.00 60 1001.6
20260505084206 53 299 5.0 13.0 0.00 0.10 0.00 59 1001.5
20260505083704 54 302 4.0 11.0 0.00 0.10 0.00 56 1001.4
20260505083202 55 1 4.0 11.0 0.00 0.10 0.00 53 1001.2
20260505082204 55 293 2.0 5.0 0.00 0.10 0.00 55 1001.2
20260505081203 54 293 2.0 10.0 0.00 0.10 0.00 55 1001.2
20260505080145 55 309 4.0 6.0 0.00 0.10 0.00 56 1001.1
20260505075633 54 279 3.0 7.0 0.00 0.10 0.00 56 1000.9
20260505075134 53 186 4.0 7.0 0.00 0.10 0.00 57 1001.0
20260505074633 53 261 4.0 7.0 0.00 0.10 0.00 55 1000.9
20260505074136 54 310 4.0 9.0 0.00 0.10 0.00 55 1000.9
20260505073632 55 272 5.0 9.0 0.00 0.10 0.00 54 1000.9
20260505073134 55 345 3.0 5.0 0.00 0.10 0.00 57 1000.8
20260505072629 55 307 3.0 6.0 0.00 0.10 0.00 56 1000.7
20260505072133 55 295 4.0 6.0 0.00 0.10 0.00 57 1000.7
20260505071632 55 307 2.0 4.0 0.00 0.10 0.00 56 1000.6
20260505071123 55 310 3.0 4.0 0.00 0.10 0.00 56 1000.6
20260505070606 55 344 2.0 6.0 0.00 0.10 0.00 61 1000.6
20260505070106 54 331 2.0 6.0 0.00 0.10 0.00 59 1000.6
20260505065600 54 117 1.0 5.0 0.00 0.10 0.00 59 1000.5
20260505065105 54 303 2.0 5.0 0.00 0.10 0.00 61 1000.6
20260505064600 54 254 2.0 5.0 0.00 0.10 0.00 60 1000.6
20260505064100 53 306 3.0 6.0 0.00 0.10 0.00 60 1000.4
20260505063601 53 289 2.0 6.0 0.00 0.10 0.00 62 1000.5
20260505063104 53 268 2.0 4.0 0.00 0.10 0.00 62 1000.5
20260505062559 53 300 1.0 4.0 0.00 0.10 0.00 63 1000.4
20260505062059 52 180 1.0 6.0 0.00 0.10 0.00 63 1000.4
20260505061559 52 0 3.0 6.0 0.00 0.10 0.00 65 1000.5
20260505061100 51 0 2.0 5.0 0.00 0.10 0.00 66 1000.4
20260505060558 51 288 3.0 5.0 0.00 0.10 0.00 67 1000.4
20260505055603 51 331 1.0 5.0 0.00 0.10 0.00 68 1000.3
20260505055101 50 34 2.0 5.0 0.00 0.10 0.00 70 1000.5
20260505054601 49 171 2.0 5.0 0.00 0.10 0.00 73 1000.3
20260505053600 48 0 2.0 5.0 0.00 0.10 0.00 77 1000.4
20260505052101 47 41 1.0 6.0 0.00 0.10 0.00 82 1000.6
20260505051101 46 157 1.0 4.0 0.00 0.10 0.00 83 1000.5
20260505050559 46 354 2.0 4.0 0.00 0.10 0.00 84 1000.5
20260505050104 45 154 1.0 4.0 0.00 0.10 0.00 85 1000.5
20260505041600 42 10 1.0 4.0 0.00 0.10 0.00 90 1000.6
20260505041102 42 18 1.0 4.0 0.00 0.10 0.00 90 1000.7
20260505040602 42 16 2.0 4.0 0.00 0.10 0.00 91 1000.8
20260505035600 42 66 1.0 5.0 0.00 0.10 0.00 91 1000.7
20260505034600 42 83 1.0 3.0 0.00 0.10 0.00 91 1000.7
20260505033600 42 135 1.0 2.0 0.00 0.10 0.00 91 1000.6
20260505033102 42 114 0.0 2.0 0.00 0.10 0.00 91 1000.6
20260505032600 42 99 0.0 3.0 0.00 0.10 0.00 91 1000.7
20260505032059 42 137 1.0 4.0 0.00 0.10 0.00 91 1000.8
20260505030605 42 213 0.0 6.0 0.00 0.10 0.00 91 1001.0
20260505030100 42 96 1.0 5.0 0.00 0.10 0.00 91 1001.0
20260505025602 42 355 2.0 5.0 0.00 0.10 0.00 91 1001.0
20260505025105 42 157 1.0 2.0 0.00 0.10 0.00 91 1001.0
20260505024604 42 17 0.0 2.0 0.00 0.10 0.00 91 1001.1
20260505024102 42 37 1.0 7.0 0.00 0.10 0.00 91 1001.0
20260505023603 42 178 1.0 7.0 0.00 0.10 0.00 91 1001.0
20260505022105 42 341 1.0 4.0 0.00 0.10 0.00 90 1001.1
20260505021103 42 128 1.0 2.0 0.00 0.10 0.00 90 1001.1
20260505020600 42 281 1.0 3.0 0.00 0.10 0.00 90 1001.2
20260505020055 43 130 1.0 3.0 0.00 0.10 0.00 90 1001.2
20260505015544 43 247 0.0 5.0 0.00 0.10 0.00 90 1001.3
20260505015046 43 183 2.0 5.0 0.00 0.10 0.00 90 1001.4
20260505014023 43 141 1.0 2.0 0.00 0.10 0.00 90 1001.6
20260505013506 43 134 1.0 2.0 0.00 0.10 0.00 90 1001.8
20260505013012 43 109 0.0 3.0 0.00 0.10 0.00 89 1001.9
20260505012502 43 0 1.0 4.0 0.00 0.10 0.00 89 1001.9
20260505012007 43 319 0.0 4.0 0.00 0.10 0.00 89 1002.0
20260505011508 43 149 0.0 2.0 0.00 0.10 0.00 89 1002.0
20260505011014 43 161 1.0 4.0 0.00 0.10 0.00 89 1002.1
20260505010506 43 300 1.0 4.0 0.00 0.10 0.00 88 1002.0
20260505010012 44 34 1.0 2.0 0.00 0.10 0.00 89 1002.0
20260505005020 44 355 0.0 2.0 0.00 0.10 0.00 89 1002.0
20260505004009 44 309 1.0 4.0 0.00 0.10 0.00 88 1002.0
20260505003459 44 259 1.0 3.0 0.00 0.10 0.00 89 1002.0
20260505003004 44 296 2.0 3.0 0.00 0.10 0.00 89 1002.0
20260505002506 44 340 1.0 3.0 0.00 0.10 0.00 88 1001.9
20260505002006 44 333 0.0 2.0 0.00 0.10 0.00 89 1001.9
20260505001004 44 278 0.0 3.0 0.00 0.10 0.00 88 1001.9
20260505000505 44 333 0.0 2.0 0.00 0.10 0.00 88 1002.0
20260505000001 45 309 1.0 2.0 0.00 0.10 0.00 88 1002.0
20260504235459 45 114 1.0 2.0 0.00 0.10 0.00 89 1002.0
20260504235001 45 76 0.0 1.0 0.00 0.10 0.00 89 1002.0
20260504234503 45 0 0.0 1.0 0.00 0.10 0.00 89 1002.0
20260504233959 45 0 0.0 1.0 0.00 0.10 0.00 89 1002.1
20260504233459 45 0 1.0 1.0 0.00 0.10 0.00 89 1002.2
20260504232959 45 292 0.0 2.0 0.00 0.10 0.00 89 1002.1
20260504232002 45 76 1.0 3.0 0.00 0.10 0.00 89 1002.1
20260504231500 45 306 1.0 3.0 0.00 0.10 0.00 89 1002.1
20260504231002 45 262 0.0 2.0 0.00 0.10 0.00 89 1002.1
20260504230500 45 55 0.0 2.0 0.00 0.10 0.00 89 1002.0
20260504225946 45 269 0.0 2.0 0.00 0.10 0.00 89 1002.0
20260504225442 45 305 0.0 3.0 0.00 0.10 0.00 90 1001.9
20260504224434 45 0 0.0 2.0 0.00 0.10 0.00 90 1002.0
20260504224039 45 347 0.0 3.0 0.00 0.10 0.00 90 1002.0
20260504223452 45 303 1.0 3.0 0.00 0.10 0.00 90 1002.0
20260504222932 45 30 1.0 2.0 0.00 0.10 0.00 90 1002.0
20260504222439 45 1 1.0 3.0 0.00 0.10 0.00 90 1002.0
20260504221913 46 312 1.0 3.0 0.00 0.10 0.00 90 1002.0
20260504221414 46 137 0.0 4.0 0.00 0.10 0.00 89 1002.0
20260504220906 46 16 0.0 4.0 0.00 0.10 0.00 90 1002.1
20260504220414 46 82 1.0 3.0 0.00 0.10 0.00 90 1002.2
20260504215908 46 343 1.0 4.0 0.00 0.10 0.00 90 1002.1
20260504215404 46 44 1.0 4.0 0.00 0.10 0.00 90 1002.2
20260504214906 46 176 0.0 2.0 0.00 0.10 0.00 90 1002.1
20260504214402 46 300 0.0 3.0 0.00 0.10 0.00 89 1002.0
20260504213901 46 152 0.0 3.0 0.00 0.10 0.00 90 1001.9
20260504212905 46 204 0.0 2.0 0.00 0.10 0.00 89 1002.2
20260504212403 46 21 0.0 2.0 0.00 0.10 0.00 89 1002.2
20260504211904 46 305 1.0 2.0 0.00 0.10 0.00 89 1002.3
20260504211401 46 20 1.0 3.0 0.00 0.10 0.00 88 1002.4
20260504210901 46 241 1.0 3.0 0.00 0.10 0.00 88 1002.4
20260504210406 46 314 2.0 3.0 0.00 0.10 0.00 88 1002.4
20260504205401 46 286 2.0 5.0 0.00 0.10 0.10 87 1002.4
20260504204403 46 32 2.0 4.0 0.00 0.10 0.10 86 1002.2
20260504203901 46 300 0.0 4.0 0.00 0.10 0.10 86 1002.3
20260504202901 47 316 1.0 4.0 0.00 0.10 0.10 86 1002.3
20260504201907 47 317 1.0 3.0 0.00 0.10 0.10 85 1002.4
20260504201402 47 295 1.0 3.0 0.00 0.10 0.10 85 1002.4
20260504200905 47 0 1.0 5.0 0.00 0.10 0.10 85 1002.3
20260504200400 47 345 1.0 5.0 0.00 0.10 0.10 85 1002.4
20260504195902 47 338 1.0 4.0 0.00 0.10 0.10 85 1002.4
20260504195402 47 0 2.0 4.0 0.00 0.10 0.10 84 1002.4
20260504194900 47 310 2.0 4.0 0.00 0.10 0.10 84 1002.4
20260504194359 47 357 0.0 3.0 0.00 0.10 0.10 84 1002.2
20260504193901 47 299 2.0 3.0 0.00 0.10 0.10 84 1002.3
20260504193359 48 0 2.0 3.0 0.00 0.10 0.10 84 1002.2
20260504192859 48 52 1.0 2.0 0.00 0.10 0.10 84 1002.3
20260504191900 48 299 1.0 3.0 0.00 0.10 0.10 84 1002.2
20260504191358 48 348 0.0 3.0 0.00 0.10 0.10 84 1002.2
20260504190859 48 282 0.0 3.0 0.00 0.10 0.10 84 1002.3
20260504190358 48 1 0.0 3.0 0.00 0.10 0.10 83 1002.3
20260504185903 48 326 0.0 3.0 0.00 0.10 0.10 83 1002.2
20260504184859 49 351 1.0 3.0 0.00 0.10 0.10 82 1002.2
20260504184400 49 48 1.0 3.0 0.00 0.10 0.10 82 1002.2
20260504183859 49 79 1.0 4.0 0.00 0.10 0.10 81 1002.1
20260504183359 49 257 1.0 4.0 0.00 0.10 0.10 81 1002.1
20260504182859 50 344 2.0 4.0 0.00 0.10 0.10 81 1002.0
20260504182359 50 16 1.0 3.0 0.00 0.10 0.10 80 1002.0
20260504181859 50 298 2.0 3.0 0.00 0.10 0.10 80 1002.0
20260504181407 50 52 1.0 4.0 0.00 0.10 0.10 79 1001.9
20260504180906 50 281 2.0 5.0 0.00 0.10 0.10 79 1002.0
20260504180403 50 354 1.0 5.0 0.00 0.10 0.10 79 1001.9
20260504175859 50 302 2.0 5.0 0.00 0.10 0.10 79 1001.9
20260504175402 51 258 1.0 3.0 0.00 0.10 0.10 79 1001.8
20260504174900 51 255 1.0 3.0 0.00 0.10 0.10 79 1001.7
20260504174359 51 309 1.0 4.0 0.00 0.10 0.10 78 1001.7
20260504173859 51 321 1.0 4.0 0.00 0.10 0.10 78 1001.6
20260504173359 51 317 1.0 2.0 0.00 0.10 0.10 78 1001.6